Content
SEND FEEDBACK

Daily
Averages
Monthly
Summary
United States of America

HILLSIDE, NEW JERSEY


Home > North America > United States > New Jersey
Elevation: 40 feet     Latitude: 40 40N     Longitude: 074 14W

WEATHER
 
SELECT A DAY
Number of Records: 189,442;   Date Range: 1/1/95 - 7/7/14
 
SHARE

PRINT THIS DATA

[ ← Previous Day ]
WEATHER ALMANAC - MARCH 31, 2013
[ Next Day → ]
[ °C ]   °F
Weather ElementAverageHighLow
Temperature46.8 °F55.4 °F (12:51 pm)39.9 °F (5:51 am)
Dewpoint36.8 °F46 °F (10:51 pm)23 °F (1:51 am)
Humidity70.3 %100 % (10:51 pm)43 % (1:51 am)
Barometer29.92 in30.12 in (1:51 am)29.68 in (11:59 pm)
Wind Speed6.1 mph13.8 mph (4:51 pm)
Wind Gust21.9 mph (1:51 pm)
Weather ElementAverage
Visibility7.5 mi
Wind DirectionESE (107.1 °)

Weather ElementTotal
Precipitation0.14 in
Heating Degree Days17.4 (Base 65)
Averaged from 28 records on March 31, 2013
WEATHER CONDITIONS BREAKOUT
WIND DIRECTION BREAKOUT
WEATHER BY HOUR - MARCH 31, 2013
[ °C ]   °F
Local TimeTemperatureDewpointHumidityBarometerVisibilityWind DirectionWind SpeedGust SpeedPrecipitationEventsConditions
1:51 AM44.1 °F23.0 °F43 %30.12 in10.0 miSSW (210°)4.6 mphClear
2:51 AM43.0 °F25.0 °F49 %30.12 in10.0 miSSW (210°)6.9 mphClear
3:51 AM43.0 °F27.0 °F53 %30.11 in10.0 miCalmPartly Cloudy
4:51 AM42.1 °F27.0 °F55 %30.11 in10.0 miCalmScattered Clouds
5:51 AM39.9 °F28.0 °F63 %30.11 in10.0 miCalmMostly Cloudy
6:51 AM41.0 °F28.9 °F62 %30.10 in10.0 miCalmMostly Cloudy
7:51 AM41.0 °F30.9 °F67 %30.10 in10.0 miCalmMostly Cloudy
8:51 AM44.1 °F32.0 °F63 %30.10 in10.0 miCalmMostly Cloudy
9:51 AM48.9 °F32.0 °F52 %30.09 in10.0 miSouth (180°)4.6 mphMostly Cloudy
10:51 AM52.0 °F30.9 °F45 %30.06 in10.0 miVariable5.8 mphMostly Cloudy
11:51 AM51.1 °F35.1 °F54 %30.04 in10.0 miSE (130°)5.8 mphOvercast
12:51 PM55.4 °F35.6 °F47 %30.00 in10.0 miSSE (160°)11.5 mph20.7 mphOvercast
1:51 PM53.1 °F37.9 °F57 %29.98 in10.0 miSSE (150°)12.7 mph21.9 mphOvercast
2:51 PM52.0 °F37.0 °F57 %29.94 in10.0 miSE (140°)9.2 mph17.3 mph0.00 inRainLight Rain
3:51 PM51.1 °F37.0 °F59 %29.91 in10.0 miSE (140°)11.5 mph18.4 mph0.00 inOvercast
4:51 PM51.1 °F37.0 °F59 %29.89 in10.0 miSE (140°)13.8 mph20.7 mph0.00 inRainLight Rain
5:51 PM48.0 °F41.0 °F77 %29.86 in10.0 miSE (140°)10.4 mph18.4 mph0.00 inRainLight Rain
6:51 PM46.9 °F42.1 °F83 %29.83 in9.0 miSE (140°)8.1 mph0.01 inRainLight Rain
7:24 PM46.4 °F42.8 °F87 %29.79 in10.0 miSE (130°)11.5 mph21.9 mph0.00 inRainLight Rain
7:51 PM46.0 °F43.0 °F89 %29.77 in3.0 miESE (120°)9.2 mph19.6 mph0.01 inRainLight Rain
8:09 PM46.4 °F42.8 °F87 %29.77 in3.0 miESE (120°)11.5 mph18.4 mph0.01 inRainLight Rain
8:48 PM46.4 °F44.6 °F93 %29.75 in2.0 miESE (120°)9.2 mph19.6 mph0.03 inRainLight Rain
8:51 PM46.0 °F44.1 °F93 %29.75 in2.0 miESE (120°)8.1 mph0.04 inRainLight Rain
9:51 PM46.0 °F45.0 °F96 %29.72 in2.0 miVariable3.5 mph0.02 inRainLight Rain
10:37 PM46.4 °F44.6 °F93 %29.70 in2.0 miESE (110°)3.5 mph0.01 inRainLight Rain
10:51 PM46.0 °F46.0 °F100 %29.70 in2.0 miCalm0.01 inLight Drizzle
11:51 PM46.9 °F45.0 °F93 %29.69 in2.0 miWest (270°)5.8 mph0.00 inOvercast
11:59 PM46.4 °F44.6 °F93 %29.68 in3.0 miWest (270°)4.6 mphOvercast
Hourly data recorded from KEWR, located miles away from Hillside, New Jersey







STORIES FROM OUR PARTNERS